Total_Precipitation_Accumulation
1.19 1.11 0.99 0.89 0.88 0.90 0.94 1.01 1.12 1.02 0.77 0.58 0.56 0.58 0.63 0.68 0.78 0.78 0.74 0.90 0.96 0.97 1.02 1.06 1.07 1.04 1.02 1.03 1.09 1.17 1.25 1.32 1.39 1.43 1.43 1.39 1.42 1.54
1.12 1.12 1.07 0.98 0.94 0.95 1.00 1.06 1.15 1.21 1.05 0.73 0.63 0.66 0.75 0.83 0.94 0.88 0.83 0.96 0.94 0.94 0.97 0.96 0.92 0.89 0.88 0.89 0.92 0.99 1.05 1.10 1.18 1.30 1.42 1.47 1.53 1.63
1.06 1.08 1.10 1.07 1.08 1.06 1.10 1.17 1.23 1.31 1.31 1.01 0.82 0.78 0.82 0.83 0.85 0.81 0.78 0.80 0.79 0.88 0.85 0.81 0.78 0.76 0.75 0.77 0.79 0.83 0.87 0.93 1.01 1.11 1.24 1.33 1.36 1.38
1.00 1.05 1.08 1.09 1.14 1.15 1.18 1.22 1.25 1.25 1.26 1.13 0.92 0.82 0.77 0.73 0.72 0.70 0.67 0.66 0.63 0.73 0.73 0.70 0.69 0.67 0.68 0.69 0.70 0.72 0.77 0.83 0.88 0.93 0.99 1.05 1.08 1.10
0.87 0.90 0.92 0.97 1.03 1.04 1.08 1.13 1.15 1.15 1.15 1.07 0.89 0.74 0.67 0.66 0.69 0.68 0.62 0.59 0.55 0.58 0.60 0.57 0.56 0.56 0.57 0.59 0.62 0.64 0.62 0.63 0.64 0.68 0.74 0.84 0.93 0.96
0.79 0.81 0.84 0.88 0.93 0.99 1.04 1.05 1.06 1.09 1.09 1.08 0.99 0.83 0.70 0.64 0.66 0.66 0.62 0.55 0.50 0.46 0.54 0.54 0.52 0.50 0.47 0.46 0.45 0.46 0.48 0.51 0.56 0.60 0.64 0.70 0.78 0.86
0.83 0.87 0.92 1.01 1.03 0.99 0.96 0.94 0.95 0.99 1.02 1.02 0.94 0.81 0.70 0.64 0.63 0.58 0.57 0.55 0.54 0.48 0.49 0.47 0.45 0.45 0.44 0.45 0.44 0.41 0.43 0.49 0.55 0.59 0.65 0.71 0.75 0.81
0.86 0.86 0.89 0.99 0.97 0.96 0.91 0.86 0.88 0.94 0.96 0.91 0.80 0.68 0.55 0.48 0.48 0.54 0.60 0.66 0.65 0.48 0.47 0.48 0.45 0.46 0.42 0.40 0.45 0.43 0.41 0.45 0.50 0.56 0.60 0.65 0.67 0.70
0.85 0.83 0.79 0.75 0.77 0.70 0.75 0.80 0.81 0.80 0.76 0.70 0.66 0.54 0.47 0.44 0.53 0.64 0.65 0.65 0.55 0.42 0.49 0.57 0.51 0.48 0.40 0.40 0.46 0.42 0.42 0.45 0.48 0.51 0.54 0.58 0.62 0.64
0.70 0.68 0.64 0.59 0.57 0.57 0.60 0.66 0.59 0.55 0.55 0.51 0.48 0.45 0.45 0.48 0.57 0.67 0.71 0.74 0.65 0.57 0.57 0.63 0.54 0.47 0.40 0.39 0.46 0.43 0.44 0.47 0.51 0.54 0.57 0.59 0.61 0.65
0.52 0.51 0.50 0.48 0.54 0.62 0.57 0.53 0.48 0.47 0.51 0.53 0.55 0.54 0.58 0.62 0.64 0.70 0.79 0.87 0.79 0.61 0.52 0.51 0.46 0.43 0.43 0.43 0.46 0.51 0.48 0.49 0.51 0.53 0.55 0.58 0.59 0.62
0.34 0.34 0.40 0.42 0.51 0.58 0.51 0.48 0.45 0.39 0.40 0.45 0.47 0.46 0.44 0.48 0.59 0.58 0.66 0.88 0.80 0.59 0.38 0.41 0.45 0.52 0.65 0.47 0.41 0.45 0.50 0.53 0.52 0.51 0.52 0.53 0.58 0.62
0.30 0.29 0.31 0.40 0.45 0.48 0.49 0.42 0.42 0.45 0.43 0.42 0.44 0.44 0.43 0.43 0.45 0.47 0.52 0.76 0.92 0.68 0.34 0.53 0.71 0.61 0.75 0.56 0.40 0.40 0.42 0.47 0.52 0.53 0.53 0.55 0.60 0.69
0.29 0.27 0.30 0.41 0.46 0.47 0.44 0.43 0.49 0.51 0.45 0.46 0.47 0.45 0.43 0.40 0.38 0.39 0.43 0.49 0.58 0.60 0.44 0.65 1.00 0.80 0.88 0.73 0.46 0.39 0.42 0.44 0.48 0.51 0.52 0.62 0.68 0.72
0.30 0.33 0.36 0.40 0.43 0.42 0.43 0.45 0.46 0.43 0.42 0.44 0.42 0.38 0.36 0.38 0.42 0.47 0.50 0.51 0.51 0.49 0.47 0.51 0.72 0.80 0.99 0.97 0.65 0.42 0.42 0.46 0.47 0.53 0.59 0.63 0.68 0.76
0.35 0.36 0.38 0.39 0.39 0.39 0.40 0.41 0.40 0.39 0.41 0.42 0.39 0.38 0.41 0.47 0.50 0.52 0.57 0.56 0.59 0.53 0.46 0.43 0.50 0.77 0.97 0.78 0.76 0.63 0.50 0.55 0.52 0.58 0.65 0.63 0.61 0.69
0.44 0.42 0.39 0.37 0.35 0.34 0.34 0.35 0.36 0.38 0.41 0.40 0.43 0.46 0.47 0.49 0.49 0.49 0.56 0.61 0.62 0.50 0.44 0.41 0.44 0.53 0.68 0.74 0.76 0.59 0.53 0.58 0.63 0.72 0.80 0.77 0.65 0.66
0.55 0.47 0.38 0.33 0.32 0.33 0.34 0.36 0.36 0.38 0.39 0.42 0.46 0.49 0.53 0.53 0.51 0.49 0.53 0.61 0.60 0.49 0.44 0.43 0.48 0.60 0.60 0.55 0.55 0.58 0.61 0.65 0.65 0.69 0.80 0.96 0.79 0.65
0.50 0.39 0.33 0.32 0.32 0.34 0.37 0.40 0.39 0.36 0.40 0.47 0.51 0.53 0.58 0.58 0.57 0.56 0.55 0.58 0.56 0.50 0.46 0.47 0.59 0.89 0.93 0.58 0.37 0.44 0.66 0.75 0.72 0.78 0.85 1.02 1.06 0.81
0.35 0.29 0.29 0.31 0.35 0.39 0.41 0.43 0.44 0.44 0.45 0.47 0.49 0.54 0.61 0.66 0.63 0.59 0.58 0.60 0.61 0.56 0.50 0.46 0.53 0.82 1.19 0.97 0.67 0.41 0.45 0.70 0.99 1.08 0.91 0.81 0.81 0.75
0.25 0.24 0.28 0.33 0.39 0.42 0.44 0.47 0.51 0.52 0.51 0.55 0.56 0.56 0.62 0.72 0.68 0.58 0.59 0.58 0.62 0.62 0.57 0.45 0.41 0.53 0.85 1.13 0.93 0.50 0.43 0.52 0.82 1.20 1.24 1.14 0.91 0.73
0.27 0.29 0.30 0.35 0.40 0.45 0.48 0.51 0.54 0.54 0.56 0.60 0.61 0.61 0.63 0.72 0.72 0.64 0.63 0.66 0.61 0.57 0.56 0.49 0.48 0.58 0.80 1.07 0.85 0.52 0.44 0.47 0.54 0.63 0.90 1.39 1.82 1.67
0.35 0.36 0.37 0.40 0.45 0.50 0.54 0.55 0.54 0.51 0.53 0.60 0.61 0.61 0.65 0.68 0.64 0.65 0.66 0.69 0.72 0.67 0.64 0.62 0.58 0.60 0.64 0.71 0.74 0.60 0.48 0.45 0.47 0.52 0.60 0.70 0.93 1.16